Location: Beneden-Haastrecht
(52.0012°N, 4.7557°E)
Time: 03:27:39
(UTC+00:00)

NOSS 2-2 (D) - Pass Details

Date: 24 October 2020
Orbit: 464 x 1743 km, 63.3° (Epoch: 23 November)

Event Time Altitude Azimuth Distance (km) Brightness Sun altitude
Rises 17:58:45 0° 313° (NW) 3,050 7.8 -14.7°
Reaches altitude 10° 18:00:47 10° 313° (NW) 2,268 7.1 -15.0°
Maximum altitude 18:06:00 85° 227° (SW) 938 4.4 -15.8°
Drops below altitude 10° 18:13:21 10° 139° (SE) 3,134 6.8 -16.9°
Enters shadow 18:13:50 - 139° (SE) 3,309 6.9 -17.0°
